Willimantic, CT

11:34 PM EDT on September 17, 2019 (GMT -0400)
Windham

Weather History for KIJD - August, 2019

Change the Weather History Date:

Sunday, August 25, 2019

  Actual Average Record
Temperature  
Mean Temperature 63 °F -  
Max Temperature 72 °F 77 °F 90 °F (1969)
Min Temperature 55 °F 54 °F 38 °F (1987)
Degree Days  
Heating Degree Days 2    
Growing Degree Days 13 (Base 50)    
Moisture  
Dew Point 54 °F    
Average Humidity 77    
Maximum Humidity 96    
Minimum Humidity 55    
Precipitation  
Precipitation 0.00 in - - ()
Sea Level Pressure  
Sea Level Pressure 30.30 in    
Wind  
Wind Speed 6 mph ()    
Max Wind Speed 18 mph    
Max Gust Speed 24 mph    
Visibility 10.0 miles    
Events      
Averages and records for this station are not official NWS values.
T = Trace of Precipitation, MM = Missing Value Source: Averaged Metar Reports

Daily Weather History Graph

Daily Weather History Graph

Search for Another Location

Airport or City:

Astronomy

Aug. 25, 2019 Rise Set
Actual Time 6:07 AM EDT 7:33 PM EDT
Civil Twilight 5:38 AM EDT 8:02 PM EDT
Nautical Twilight 5:02 AM EDT 8:37 PM EDT
Astronomical Twilight 4:25 AM EDT 9:14 PM EDT
Moon 12:37 AM EDT (8/25) 3:54 PM EDT (8/25)
Length of Visible Light 14h 24m
Length of Day
13h 26m
Waning Crescent, 29% of the Moon is Illuminated
Aug 25
Waning Crescent
Aug 30
New
Sep 5
First Quarter
Sep 14
Full
Sep 21
Last Quarter

Hourly Weather History & Observations

Time (EDT) Temp. Dew Point Humidity Pressure Visibility Wind Dir Wind Speed Gust Speed Precip Events Conditions
12:52 AM 57.9 °F 55.9 °F 93% 30.32 in 10.0 mi North 3.5 mph - N/A   Clear
1:52 AM 57.9 °F 55.9 °F 93% 30.29 in 10.0 mi Calm Calm - N/A   Clear
2:52 AM 55.9 °F 54.0 °F 93% 30.30 in 10.0 mi Calm Calm - N/A   Clear
3:52 AM 55.9 °F 54.0 °F 93% 30.29 in 10.0 mi North 5.8 mph - N/A   Clear
4:52 AM 55.0 °F 54.0 °F 96% 30.30 in 10.0 mi North 5.8 mph - N/A   Clear
5:52 AM 55.0 °F 54.0 °F 96% 30.30 in 10.0 mi North 5.8 mph - N/A   Clear
6:52 AM 55.9 °F 54.0 °F 93% 30.30 in 10.0 mi North 5.8 mph - N/A   Clear
7:52 AM 61.0 °F 57.0 °F 87% 30.33 in 10.0 mi Variable 3.5 mph - N/A   Clear
8:52 AM 64.9 °F 55.9 °F 73% 30.32 in 10.0 mi NE 13.8 mph - N/A   Partly Cloudy
9:52 AM 68.0 °F 55.0 °F 63% 30.31 in 10.0 mi NE 16.1 mph 24.2 mph N/A   Clear
10:52 AM 70.0 °F 53.1 °F 55% 30.31 in 10.0 mi NE 18.4 mph 23.0 mph N/A   Partly Cloudy
11:52 AM 70.0 °F 54.0 °F 57% 30.32 in 10.0 mi NE 9.2 mph - N/A   Mostly Cloudy
12:52 PM 66.9 °F 55.0 °F 66% 30.31 in 10.0 mi NE 15.0 mph - N/A   Overcast
1:52 PM 68.0 °F 55.0 °F 63% 30.31 in 10.0 mi NE 10.4 mph - N/A   Overcast
2:52 PM 71.1 °F 55.9 °F 59% 30.28 in 10.0 mi NE 12.7 mph 20.7 mph N/A   Scattered Clouds
3:52 PM 71.1 °F 55.0 °F 57% 30.27 in 10.0 mi NE 11.5 mph - N/A   Partly Cloudy
5:52 PM 69.1 °F 54.0 °F 58% 30.27 in 10.0 mi ENE 12.7 mph - N/A   Mostly Cloudy
6:52 PM 64.9 °F 53.1 °F 65% 30.27 in 10.0 mi East 6.9 mph - N/A   Clear
7:52 PM 62.1 °F 51.1 °F 67% 30.30 in 10.0 mi East 4.6 mph - N/A   Partly Cloudy
8:52 PM 59.0 °F 52.0 °F 78% 30.31 in 10.0 mi NNE 6.9 mph - N/A   Clear
9:52 PM 57.0 °F 51.1 °F 81% 30.30 in 10.0 mi NNE 4.6 mph - N/A   Clear
10:52 PM 55.9 °F 52.0 °F 87% 30.31 in 10.0 mi NNE 5.8 mph - N/A   Partly Cloudy
11:30 PM 55.9 °F 52.0 °F 87% 30.28 in 10.0 mi North 5.8 mph - N/A   Mostly Cloudy
11:52 PM 55.9 °F 51.1 °F 84% 30.28 in 10.0 mi NNE 5.8 mph - N/A   Overcast